Location: A�t �Alizem
(31.2076°N, 8.7872°W)
Time: 19:41:32
(UTC+00:00)

N. Korean satellite - Pass Details

Date: 21 September 2021
Orbit: 450 x 495 km, 97.3° (Epoch: 25 October)

Event Time Altitude Azimuth Distance (km) Brightness Sun altitude
Rises 05:27:16 0° 18° (NNE) 2,516 10.6 -12.7°
Reaches altitude 10° 05:29:22 10° 25° (NNE) 1,643 9.7 -12.2°
Maximum altitude 05:32:46 46° 99° (E) 654 7.7 -11.5°
Drops below altitude 10° 05:36:12 10° 174° (S) 1,658 9.3 -10.8°
Sets 05:38:20 0° 180° (S) 2,541 10.1 -10.3°
